�������l�o���
Date,Time,MP-1(��Sv/h),MP-2(��Sv/h),MP-3(��Sv/h),MP-4(��Sv/h),MP-5(��Sv/h),MP-6(��Sv/h),MP-7(��Sv/h),MP-8(��Sv/h),����,����(m/s),���J
2022/09/25,00:00,0.551,0.785,0.509,0.980,0.670,0.329,0.570,0.543,�k�k��,4.3,�L
2022/09/25,00:10,0.554,0.784,0.509,0.980,0.669,0.329,0.572,0.543,�k�k��,4.1,��
2022/09/25,00:20,0.553,0.783,0.509,0.980,0.670,0.331,0.572,0.544,�k,4.2,��
2022/09/25,00:30,0.553,0.785,0.509,0.981,0.671,0.331,0.571,0.543,�k,4.8,��
2022/09/25,00:40,0.552,0.785,0.510,0.982,0.671,0.331,0.571,0.544,�k,5.5,�L
2022/09/25,00:50,0.553,0.786,0.510,0.979,0.671,0.331,0.570,0.542,�k�k��,5.1,�L
2022/09/25,01:00,0.552,0.782,0.510,0.983,0.671,0.332,0.571,0.544,�k�k��,4.8,��
2022/09/25,01:10,0.551,0.786,0.509,0.981,0.672,0.333,0.572,0.542,�k,4.8,��
2022/09/25,01:20,0.554,0.785,0.509,0.983,0.672,0.330,0.572,0.543,�k�k��,5.0,�L
2022/09/25,01:30,0.554,0.786,0.509,0.983,0.673,0.330,0.572,0.544,�k,5.4,�L
2022/09/25,01:40,0.555,0.785,0.509,0.984,0.672,0.330,0.570,0.545,�k�k��,6.3,��
2022/09/25,01:50,0.552,0.785,0.509,0.983,0.673,0.331,0.572,0.545,�k�k��,6.8,��
2022/09/25,02:00,0.553,0.784,0.509,0.983,0.674,0.330,0.571,0.545,�k�k��,5.3,��
2022/09/25,02:10,0.553,0.786,0.511,0.982,0.673,0.331,0.571,0.544,�k�k��,5.3,��
2022/09/25,02:20,0.554,0.787,0.509,0.984,0.674,0.331,0.571,0.544,�k�k��,5.6,��
2022/09/25,02:30,0.554,0.784,0.509,0.983,0.674,0.330,0.571,0.544,�k�k��,6.1,��
2022/09/25,02:40,0.554,0.788,0.509,0.984,0.675,0.331,0.570,0.543,�k�k��,6.0,��
2022/09/25,02:50,0.554,0.787,0.511,0.985,0.675,0.330,0.571,0.544,�k�k��,4.8,��
2022/09/25,03:00,0.554,0.785,0.511,0.984,0.674,0.331,0.571,0.542,�k�k��,4.2,��
2022/09/25,03:10,0.554,0.787,0.509,0.985,0.675,0.331,0.572,0.544,�k�k��,3.4,��
2022/09/25,03:20,0.554,0.786,0.510,0.984,0.676,0.331,0.571,0.543,�k,4.1,��
2022/09/25,03:30,0.554,0.786,0.510,0.984,0.675,0.332,0.573,0.544,�k�k��,4.2,��
2022/09/25,03:40,0.552,0.788,0.511,0.985,0.674,0.331,0.571,0.544,�k�k��,4.7,��
2022/09/25,03:50,0.555,0.786,0.510,0.984,0.674,0.333,0.573,0.545,�k�k��,4.5,��
2022/09/25,04:00,0.553,0.788,0.510,0.983,0.675,0.330,0.572,0.544,�k,5.1,��
2022/09/25,04:10,0.553,0.788,0.510,0.983,0.675,0.333,0.574,0.544,�k,5.3,��
2022/09/25,04:20,0.554,0.787,0.511,0.984,0.675,0.330,0.574,0.545,�k�k��,6.1,��
2022/09/25,04:30,0.554,0.785,0.510,0.985,0.677,0.331,0.573,0.545,�k�k��,6.0,��
2022/09/25,04:40,0.554,0.787,0.510,0.982,0.676,0.332,0.572,0.544,�k�k��,6.3,��
2022/09/25,04:50,0.555,0.788,0.510,0.985,0.676,0.331,0.573,0.545,�k�k��,5.9,��
2022/09/25,05:00,0.555,0.785,0.511,0.987,0.676,0.331,0.572,0.544,�k�k��,5.7,��
2022/09/25,05:10,0.555,0.786,0.510,0.984,0.676,0.331,0.572,0.544,�k�k��,5.8,��
2022/09/25,05:20,0.554,0.788,0.511,0.985,0.676,0.332,0.573,0.545,�k�k��,5.8,��
2022/09/25,05:30,0.554,0.788,0.510,0.985,0.677,0.331,0.573,0.544,�k�k��,6.5,��
2022/09/25,05:40,0.555,0.785,0.512,0.983,0.676,0.330,0.574,0.544,�k�k��,5.9,��
2022/09/25,05:50,0.555,0.786,0.510,0.983,0.677,0.330,0.574,0.543,�k�k��,5.5,��
2022/09/25,06:00,0.554,0.787,0.511,0.985,0.677,0.331,0.576,0.544,�k�k��,5.8,��
2022/09/25,06:10,0.554,0.789,0.509,0.984,0.679,0.332,0.573,0.545,�k�k��,5.7,��
2022/09/25,06:20,0.555,0.787,0.510,0.984,0.677,0.332,0.574,0.544,�k�k��,5.5,��
2022/09/25,06:30,0.553,0.787,0.511,0.983,0.678,0.333,0.576,0.544,�k�k��,5.6,��
2022/09/25,06:40,0.554,0.786,0.510,0.986,0.677,0.332,0.576,0.545,�k�k��,5.5,��
2022/09/25,06:50,0.554,0.790,0.509,0.988,0.677,0.331,0.576,0.545,�k�k��,5.2,��
2022/09/25,07:00,0.556,0.788,0.512,0.984,0.679,0.331,0.574,0.543,�k�k��,5.1,��
2022/09/25,07:10,0.556,0.785,0.511,0.986,0.679,0.331,0.574,0.546,�k�k��,4.6,��
2022/09/25,07:20,0.555,0.789,0.512,0.985,0.679,0.332,0.577,0.545,�k�k��,4.9,��
2022/09/25,07:30,0.555,0.789,0.511,0.985,0.679,0.332,0.576,0.545,�k�k��,4.9,��
2022/09/25,07:40,0.555,0.790,0.511,0.986,0.679,0.331,0.576,0.545,�k�k��,4.3,��
2022/09/25,07:50,0.557,0.788,0.511,0.987,0.680,0.332,0.575,0.546,�k�k��,3.2,��
2022/09/25,08:00,0.556,0.790,0.512,0.987,0.680,0.331,0.574,0.545,�k,3.7,��
2022/09/25,08:10,0.555,0.788,0.511,0.988,0.679,0.331,0.575,0.546,�k,4.1,��
2022/09/25,08:20,0.555,0.788,0.512,0.987,0.678,0.330,0.575,0.546,�k,3.9,��
2022/09/25,08:30,0.556,0.787,0.510,0.986,0.677,0.331,0.575,0.545,�k�k��,4.7,��
2022/09/25,08:40,0.554,0.786,0.511,0.990,0.677,0.331,0.575,0.543,�k�k��,3.6,��
2022/09/25,08:50,0.555,0.788,0.509,0.987,0.678,0.330,0.577,0.544,�k�k��,3.2,��
2022/09/25,09:00,0.556,0.787,0.512,0.987,0.677,0.329,0.575,0.543,�k�k��,4.4,��
2022/09/25,09:10,0.554,0.786,0.511,0.987,0.680,0.332,0.576,0.542,�k�k��,4.2,��
2022/09/25,09:20,0.557,0.789,0.510,0.989,0.680,0.330,0.576,0.544,�k�k��,4.3,��
2022/09/25,09:30,0.556,0.789,0.512,0.988,0.679,0.331,0.576,0.543,�k,4.4,��
2022/09/25,09:40,0.555,0.791,0.511,0.990,0.680,0.331,0.576,0.545,�k�k��,4.8,��
2022/09/25,09:50,0.557,0.791,0.511,0.987,0.682,0.330,0.576,0.544,�k,5.1,��
2022/09/25,10:00,0.556,0.790,0.512,0.989,0.682,0.331,0.577,0.544,�k,5.6,��
2022/09/25,10:10,0.557,0.792,0.512,0.987,0.682,0.331,0.576,0.544,�k�k��,5.0,��
2022/09/25,10:20,0.558,0.790,0.510,0.987,0.682,0.332,0.576,0.545,�k�k��,5.6,��
2022/09/25,10:30,0.558,0.791,0.513,0.988,0.683,0.330,0.577,0.545,�k,5.7,��
2022/09/25,10:40,0.557,0.789,0.513,0.989,0.684,0.330,0.576,0.543,�k�k��,4.6,��
2022/09/25,10:50,0.557,0.794,0.513,0.991,0.684,0.332,0.577,0.545,�k�k��,4.9,��
2022/09/25,11:00,0.558,0.792,0.515,0.990,0.685,0.331,0.577,0.545,�k�k��,5.2,��
2022/09/25,11:10,0.559,0.793,0.514,0.990,0.686,0.332,0.577,0.546,�k�k��,5.6,��
2022/09/25,11:20,0.560,0.795,0.515,0.991,0.687,0.332,0.576,0.545,�k�k��,5.9,��
2022/09/25,11:30,0.559,0.794,0.515,0.991,0.687,0.331,0.577,0.546,�k�k��,5.4,��
2022/09/25,11:40,0.559,0.798,0.516,0.991,0.687,0.333,0.576,0.546,�k�k��,5.1,��
2022/09/25,11:50,0.560,0.796,0.515,0.993,0.686,0.332,0.576,0.547,�k�k��,4.8,��
2022/09/25,12:00,0.560,0.797,0.514,0.991,0.688,0.332,0.578,0.546,�k�k��,5.3,��
2022/09/25,12:10,0.560,0.797,0.515,0.990,0.688,0.331,0.578,0.546,�k�k��,5.6,��
2022/09/25,12:20,0.558,0.795,0.517,0.991,0.690,0.331,0.577,0.546,�k�k��,5.7,��
2022/09/25,12:30,0.560,0.798,0.516,0.991,0.688,0.334,0.578,0.546,�k�k��,5.3,��
2022/09/25,12:40,0.560,0.798,0.516,0.993,0.689,0.333,0.578,0.546,�k�k��,5.0,��
2022/09/25,12:50,0.561,0.797,0.516,0.991,0.690,0.333,0.578,0.547,�k�k��,4.7,��
2022/09/25,13:00,0.562,0.797,0.517,0.993,0.690,0.333,0.577,0.548,�k�k��,5.6,��
2022/09/25,13:10,0.561,0.798,0.516,0.994,0.691,0.331,0.579,0.546,�k�k��,4.5,��
2022/09/25,13:20,0.562,0.799,0.517,0.992,0.692,0.333,0.578,0.547,�k�k��,4.0,��
2022/09/25,13:30,0.561,0.797,0.518,0.995,0.691,0.332,0.580,0.547,�k�k��,4.0,��
2022/09/25,13:40,0.561,0.800,0.518,0.996,0.692,0.331,0.579,0.548,�k�k��,4.4,��
2022/09/25,13:50,0.561,0.801,0.518,0.992,0.691,0.333,0.579,0.549,�k��,3.8,��
2022/09/25,14:00,0.561,0.799,0.516,0.993,0.693,0.334,0.579,0.547,�k�k��,4.3,��
2022/09/25,14:10,0.562,0.798,0.516,0.994,0.691,0.333,0.580,0.547,�k�k��,4.4,��
2022/09/25,14:20,0.563,0.799,0.517,0.995,0.692,0.333,0.578,0.547,�k�k��,4.2,��
2022/09/25,14:30,0.561,0.800,0.517,0.994,0.693,0.333,0.578,0.549,�k�k��,3.9,��
2022/09/25,14:40,0.560,0.800,0.519,0.994,0.691,0.333,0.578,0.547,�k�k��,3.9,��
2022/09/25,14:50,0.563,0.799,0.516,0.995,0.693,0.332,0.578,0.548,�k�k��,4.0,��
2022/09/25,15:00,0.561,0.802,0.517,0.994,0.692,0.332,0.578,0.548,�k�k��,4.0,��
2022/09/25,15:10,0.561,0.798,0.519,0.994,0.692,0.332,0.579,0.547,�k�k��,3.6,��
2022/09/25,15:20,0.562,0.802,0.518,0.995,0.693,0.332,0.580,0.547,�k�k��,3.2,��
2022/09/25,15:30,0.560,0.801,0.520,0.994,0.692,0.332,0.579,0.548,�k�k��,3.1,��
2022/09/25,15:40,0.562,0.802,0.518,0.996,0.694,0.333,0.579,0.548,�k�k��,2.8,��
2022/09/25,15:50,0.561,0.802,0.516,0.995,0.694,0.332,0.579,0.548,�k��,2.8,��
2022/09/25,16:00,0.561,0.803,0.517,0.995,0.694,0.333,0.580,0.547,�k��,2.3,��
2022/09/25,16:10,0.561,0.800,0.519,0.994,0.693,0.333,0.580,0.546,�k��,2.6,��
2022/09/25,16:20,0.561,0.800,0.518,0.993,0.692,0.334,0.580,0.546,�k,2.2,��
2022/09/25,16:30,0.562,0.803,0.518,0.996,0.692,0.334,0.579,0.548,�k�k��,2.0,��
2022/09/25,16:40,0.561,0.805,0.518,0.995,0.695,0.333,0.580,0.548,�k�k��,2.0,��
2022/09/25,16:50,0.561,0.802,0.517,0.995,0.693,0.336,0.580,0.548,�k,1.9,��
2022/09/25,17:00,0.560,0.805,0.519,0.995,0.695,0.333,0.579,0.548,�k�k��,1.1,��
2022/09/25,17:10,0.562,0.802,0.520,0.995,0.695,0.334,0.580,0.549,�k�k��,1.7,��
2022/09/25,17:20,0.563,0.803,0.521,0.995,0.694,0.334,0.579,0.549,�k�k��,1.4,��
2022/09/25,17:30,0.563,0.805,0.520,0.997,0.697,0.334,0.581,0.549,�k�k��,1.2,��
2022/09/25,17:40,0.563,0.806,0.519,0.996,0.696,0.334,0.580,0.551,�k�k��,0.8,��
2022/09/25,17:50,0.562,0.804,0.520,0.995,0.695,0.334,0.582,0.550,�k�k��,1.1,��
2022/09/25,18:00,0.564,0.803,0.521,0.996,0.697,0.333,0.582,0.549,-,CALM,��
2022/09/25,18:10,0.565,0.804,0.521,0.996,0.696,0.334,0.581,0.550,��쐼,0.6,��
2022/09/25,18:20,0.564,0.804,0.521,0.996,0.696,0.335,0.581,0.549,�k��,1.2,��
2022/09/25,18:30,0.562,0.804,0.519,0.994,0.698,0.334,0.582,0.548,�k�k��,1.4,��
2022/09/25,18:40,0.564,0.806,0.519,0.997,0.697,0.334,0.579,0.549,�k�k��,2.2,��
2022/09/25,18:50,0.562,0.803,0.520,0.994,0.699,0.334,0.582,0.548,�k�k��,2.2,��
2022/09/25,19:00,0.564,0.804,0.519,0.997,0.697,0.334,0.581,0.548,�k��,2.5,��
2022/09/25,19:10,0.564,0.803,0.520,0.996,0.699,0.334,0.582,0.549,�k��,2.6,��
2022/09/25,19:20,0.563,0.803,0.518,0.996,0.696,0.335,0.581,0.550,�k��,2.6,��
2022/09/25,19:30,0.562,0.804,0.520,0.996,0.696,0.335,0.581,0.550,�k��,2.0,��
2022/09/25,19:40,0.563,0.806,0.520,0.995,0.698,0.335,0.582,0.549,�k��,2.9,��
2022/09/25,19:50,0.563,0.805,0.519,0.996,0.699,0.334,0.583,0.548,�k��,2.9,��
2022/09/25,20:00,0.562,0.803,0.520,0.995,0.697,0.333,0.583,0.550,�k��,3.7,��
2022/09/25,20:10,0.564,0.805,0.520,0.996,0.698,0.334,0.581,0.548,�k��,3.7,��
2022/09/25,20:20,0.562,0.803,0.520,0.996,0.699,0.334,0.582,0.548,�k��,3.7,��
2022/09/25,20:30,0.563,0.804,0.518,0.996,0.696,0.334,0.582,0.549,�k��,3.7,��
2022/09/25,20:40,0.561,0.806,0.520,0.998,0.696,0.335,0.582,0.550,�k��,3.7,��
2022/09/25,20:50,0.563,0.803,0.519,0.998,0.699,0.334,0.583,0.549,�k��,3.2,��
2022/09/25,21:00,0.563,0.804,0.520,0.996,0.698,0.335,0.582,0.547,�k��,3.1,��
2022/09/25,21:10,0.562,0.802,0.518,0.999,0.698,0.333,0.583,0.550,�k��,3.4,��
2022/09/25,21:20,0.562,0.804,0.520,0.996,0.698,0.335,0.583,0.548,�k��,3.1,��
2022/09/25,21:30,0.562,0.803,0.520,0.996,0.698,0.333,0.582,0.550,�k��,2.6,��
2022/09/25,21:40,0.563,0.804,0.520,0.998,0.699,0.334,0.583,0.548,�k�k��,2.6,��
2022/09/25,21:50,0.564,0.803,0.520,0.995,0.697,0.334,0.582,0.549,�k�k��,2.6,��
2022/09/25,22:00,0.562,0.801,0.520,0.998,0.699,0.334,0.582,0.552,�k�k��,2.5,��
2022/09/25,22:10,0.563,0.802,0.519,1.000,0.697,0.334,0.582,0.549,�k�k��,2.3,��
2022/09/25,22:20,0.562,0.803,0.519,0.998,0.699,0.332,0.582,0.549,�k�k��,2.0,��
2022/09/25,22:30,0.563,0.803,0.519,0.997,0.698,0.334,0.583,0.549,�k�k��,2.0,��
2022/09/25,22:40,0.562,0.803,0.520,0.998,0.697,0.334,0.584,0.550,�k�k��,2.2,��
2022/09/25,22:50,0.562,0.805,0.520,0.999,0.699,0.334,0.583,0.549,�k�k��,2.3,��
2022/09/25,23:00,0.564,0.801,0.520,0.998,0.697,0.334,0.583,0.549,�k�k��,2.6,��
2022/09/25,23:10,0.563,0.804,0.521,0.999,0.698,0.334,0.582,0.550,�k�k��,2.2,��
2022/09/25,23:20,0.563,0.802,0.521,0.999,0.699,0.334,0.584,0.550,�k�k��,2.3,��
2022/09/25,23:30,0.564,0.803,0.519,0.997,0.700,0.335,0.583,0.549,�k�k��,2.2,��
2022/09/25,23:40,0.564,0.802,0.520,0.999,0.698,0.336,0.585,0.550,�k�k��,2.6,��
2022/09/25,23:50,0.562,0.804,0.520,0.998,0.700,0.334,0.584,0.549,�k�k��,2.3,��
